Location: ??????
(41.3794°N, 22.5014°E)
Time: 06:58:51
(UTC+00:00)

SL-24 R/B - Pass Details

Date: 30 November 2020
Orbit: 504 x 1003 km, 97.4° (Epoch: 17 January)

Event Time Altitude Azimuth Distance (km) Brightness Sun altitude
Exits shadow 16:50:10 26° 8° (N) 1,068 5.1 -19.9°
Maximum altitude 16:52:13 81° 284° (WNW) 526 3.7 -20.3°
Drops below altitude 10° 16:55:51 10° 197° (SSW) 1,711 6.7 -20.9°
Sets 16:57:53 0° 196° (SSW) 2,593 7.6 -21.3°
